Location: Bog Eddy
(44.0828°N, 71.7056°W)
Time: 04:01:32
(UTC+00:00)

Daily predictions for brighter satellites

Satellite Brightness Start Highest point End
(mag) Time Altitude Azimuth Time Altitude Azimuth Time Altitude Azimuth
DELTA 2 DEB (DPAF) 4.0 00:39:29 10° NNE 00:43:44 74° ESE 00:47:56 10° S
Cosmos 44 3.7 00:41:45 10° NNW 00:46:29 50° NE 00:50:55 10° SE
Cosmos 2084 4.1 00:44:46 10° NNW 00:48:17 36° NE 00:51:48 10° ESE
SL-8 R/B 4.1 00:45:48 10° SSW 00:50:13 40° SE 00:54:39 10° ENE
ATLAS 3B R/B 3.1 00:45:36 10° NW 00:53:31 82° NE 01:01:16 10° SE
Cosmos 923 Rocket 4.2 00:53:46 10° SSW 00:59:05 80° WNW 01:04:28 10° NNE
Cosmos 1464 Rocket 4.1 00:53:08 10° N 00:59:27 86° W 01:05:39 10° S
ERS-1 Rocket 4.1 00:55:53 10° ESE 01:00:08 29° ENE 01:04:25 10° N
Cosmos 2278 Rocket 4.1 00:56:55 10° NW 01:01:36 27° WSW 01:06:15 10° SSW
CZ-4B R/B 4.0 00:57:43 10° S 01:02:53 49° W 01:08:02 10° NNW
Cosmos 2221 2.8 01:02:02 10° SSE 01:06:10 47° E 01:10:20 10° NNE
USA 245 4.4 01:06:58 10° E 01:07:53 12° ENE 01:08:47 10° NE
Lacrosse 5 rocket 3.3 01:06:49 10° W 01:10:46 35° NNW 01:14:41 10° NE
Okean-O 2.6 01:07:03 10° SSE 01:11:26 80° ENE 01:15:52 10° N
CZ-4C R/B 3.3 01:08:03 10° NNE 01:11:49 61° ESE 01:15:43 10° S
Cosmos 2297 3.9 01:07:10 10° NNW 01:12:53 63° ENE 01:18:05 12° SE
USA 186 4.4 01:13:29 10° SW 01:15:52 20° W 01:18:18 10° NW
Cosmos 1371 Rocket 4.1 01:11:53 10° NNW 01:17:16 80° ENE 01:22:23 11° SSE
Meteor 1-26 Rocket 4.4 01:11:43 10° S 01:17:46 85° E 01:23:48 10° NNE
MetOp-B 4.2 01:12:53 10° SSE 01:18:10 64° ENE 01:23:29 10° N
Lacrosse 5 2.4 01:17:05 10° NW 01:22:02 51° SW 01:26:27 13° SSE
Cosmos 921 Rocket 3.1 01:20:05 10° S 01:24:30 65° ESE 01:28:57 10° NNE
BREEZE-M DEB (TANK) 3.0 01:22:14 10° SW 01:24:52 78° SSE 01:32:40 10° ENE
MOS 1 4.3 01:19:30 10° SSE 01:25:11 90° WSW 01:30:54 10° NNW
Cosmos 1420 Rocket 4.2 01:20:27 10° NNW 01:25:46 74° WSW 01:30:59 10° SSE
Cosmos 1634 Rocket 4.1 01:27:10 10° N 01:33:26 63° E 01:38:44 14° SSE
Cosmos 1378 4.3 01:30:42 10° SSW 01:33:46 37° WNW 01:36:51 10° N
Cosmos 1536 4.3 01:31:07 10° NNE 01:34:09 21° ENE 01:35:54 16° ESE
SPOT 3 Rocket 4.2 01:31:56 16° SE 01:35:34 39° ENE 01:40:20 10° N
Terra 2.2 01:32:53 17° SE 01:36:17 48° ENE 01:40:50 10° N
SL-16 R/B 2.8 01:31:22 10° SW 01:36:57 60° WNW 01:42:36 10° NNE
GEOS 3 Rocket 4.1 01:32:56 10° NE 01:37:40 35° ESE 01:42:18 10° S
IRS-1A Rocket 4.3 01:33:36 13° SSE 01:38:40 80° ENE 01:44:14 10° NNW
Meteor 2-6 Rocket 4.2 01:35:40 10° S 01:41:14 68° E 01:46:41 10° NNE
Cosmos 1743 2.4 01:38:39 10° N 01:42:17 85° E 01:44:46 19° S
Cosmos 2263 4.4 01:37:43 10° NNW 01:43:22 62° ENE 01:47:23 20° SE
Spot 2 Rocket 3.8 01:39:58 18° SE 01:43:30 52° ENE 01:48:23 10° N
SPOT 5 2.9 01:42:03 13° S 01:46:12 71° WSW 01:50:38 10° NNW
Cosmos 2369 Rocket 2.2 01:43:05 10° NNW 01:48:43 89° ENE 01:52:43 20° SSE
Resurs 01 Rocket 4.2 01:49:36 10° SW 01:52:36 18° W 01:55:36 10° NW
USA 229 DEB 4.0 01:47:43 10° NW 01:55:14 86° NE 02:01:06 21° SE
USA 229 4.0 01:47:49 10° NW 01:55:20 85° NE 02:01:12 21° SE
Tsikada Rocket 4.4 01:53:34 10° SSW 01:59:41 63° W 02:05:54 10° N
Okean 3 Rocket 3.5 01:55:39 10° N 02:00:03 77° E 02:02:32 25° SSE
ISS -3.0 01:57:57 10° NW 02:01:11 46° NNE 02:02:55 23° E
Cosmos 1726 1.8 02:00:18 10° N 02:03:24 57° E 02:04:12 41° SE
Cosmos 1656 Rocket 4.2 02:00:45 10° NW 02:06:03 51° WSW 02:09:58 18° S
Ariane Rocket 2.9 02:02:59 23° SSE 02:06:10 81° ENE 02:11:16 10° NNW
BREEZE-M DEB (TANK) 4.0 02:02:22 10° W 02:06:15 82° N 02:17:59 10° E
Cosmos 1842 Rocket 3.5 02:03:09 16° S 02:06:38 90° W 02:11:05 10° N
USA 32 4.5 02:02:24 10° SSW 02:07:33 62° W 02:12:45 10° N
Okean O Rocket 4.3 02:05:50 10° SW 02:08:16 14° W 02:10:42 10° WNW
Aureole 3 Rocket 4.3 02:04:36 10° NNW 02:08:28 42° W 02:13:38 10° SSW
USA 276 2.0 02:07:11 10° WNW 02:08:59 45° WSW 02:08:59 45° WSW
ARGOS Delta rocket 4.1 02:06:55 19° S 02:10:36 69° W 02:15:28 10° NNW
Meteor 1-27 Rocket 4.1 02:08:53 26° SSE 02:11:32 44° E 02:16:44 10° NNE
Cosmos 1943 3.2 02:11:08 10° SSW 02:16:49 88° WNW 02:22:32 10° NNE
Cosmos 1452 Rocket 3.5 02:11:58 10° NNW 02:17:14 77° ENE 02:19:49 31° SSE
Cosmos 468 4.4 02:13:47 16° S 02:18:00 74° ESE 02:23:12 10° NNE
USA 306 3.8 02:14:58 10° NW 02:18:34 38° NNE 02:20:43 20° E
Spot 1 3.9 02:16:43 10° NNE 02:20:47 64° ESE 02:22:25 34° S
Landsat 4 4.4 02:24:14 27° SSW 02:25:40 43° W 02:29:01 10° NNW
Cosmos 1340 Rocket 3.3 02:26:01 39° ESE 02:26:33 41° E 02:30:19 10° NNE
SL-8 R/B 4.0 02:27:46 10° WSW 02:32:30 69° NNW 02:37:16 10° ENE
Meteor 2-9 Rocket 4.3 02:29:36 10° N 02:35:28 74° E 02:38:09 34° SSE
Sich 1 3.0 02:33:23 10° N 02:37:45 67° E 02:38:54 46° SE
ARIANE 5 R/B 3.9 02:36:47 24° E 02:37:51 27° ENE 02:41:27 10° N
ERS-1 Rocket 4.1 02:35:26 17° SSW 02:38:45 37° W 02:43:24 10° NNW
USA 59 Rocket 1.5 02:38:34 10° NNW 02:42:05 30° NE 02:44:22 21° E
FALCON 9 R/B 4.1 02:37:07 10° WSW 02:43:25 44° S 03:04:11 10° ESE
Cosmos 1733 2.9 02:39:56 10° N 02:43:26 67° E 02:43:36 66° ESE
Cosmos 1743 Rocket 3.5 02:45:09 10° N 02:49:34 83° E 02:50:36 52° SSE
Lacrosse 5 rocket 4.4 02:47:38 10° NW 02:50:10 15° N 02:52:41 10° NNE
H-2A R/B 4.0 02:50:26 22° E 02:51:12 23° ENE 02:54:31 10° NNE
Landsat 5 3.6 02:48:21 10° N 02:52:04 59° WNW 02:53:22 36° SW
Cosmos 1626 4.0 02:53:34 16° ENE 02:53:34 16° ENE 02:54:46 10° NE
Lacrosse 4 Rocket 3.4 02:49:35 10° N 02:52:36 19° NE 02:54:07 16° ENE
USA 281 3.3 02:49:24 32° S 02:52:41 73° WSW 02:59:17 10° NNW
Centaur D AC-29 4.2 02:47:21 10° SW 02:54:09 34° SSE 03:32:20 10° ESE
Cosmos 1092 Rocket 4.4 02:53:25 36° SE 02:55:26 47° E 03:01:27 10° NNE
Cosmos 614 Rocket 4.2 02:56:17 45° SE 02:57:13 51° ESE 03:02:16 10° NNE
MOS 1 Rocket 4.4 02:55:06 26° SSW 02:57:33 43° W 03:02:34 10° NNW
Meteor 1-19 Rocket 4.4 02:58:31 27° SSW 03:01:54 74° WNW 03:07:42 10° N
Cosmos 1302 Rocket 3.9 02:58:46 10° NNW 03:03:59 81° ENE 03:05:23 50° SSE
Okean 1 4.4 03:02:50 27° WSW 03:04:17 38° WNW 03:07:56 10° N
Cosmos 1975 3.2 03:01:50 10° N 03:05:40 48° ENE 03:05:42 48° E
Meteor 1-11 Rocket 4.4 03:02:10 10° NNW 03:07:34 47° W 03:10:17 27° SSW
IRIDIUM 104 4.3 03:03:47 10° N 03:09:00 67° E 03:10:13 50° SE
Cosmos 2195 Rocket 4.4 03:06:59 41° SSE 03:09:10 72° E 03:15:15 10° NNE
Cosmos 1536 4.3 03:06:46 10° NNW 03:10:07 28° W 03:11:11 24° WSW
Nadezhda 4 Rocket 4.2 03:09:39 28° SSW 03:12:59 69° W 03:19:14 10° N
Terra 3.9 03:11:35 13° SW 03:14:08 19° W 03:17:29 10° NW
IRIDIUM 114 4.2 03:12:55 10° N 03:18:10 81° E 03:19:20 55° SSE
Molniya-1 4.5 03:16:16 23° SW 03:18:42 71° NW 03:28:32 10° NE
CZ-2C R/B 3.5 03:14:57 10° NNE 03:19:28 79° ESE 03:19:56 69° SSE
Cosmos 1340 3.2 03:16:15 10° NNW 03:19:13 45° WNW 03:19:13 45° WNW
Cosmos 1818 3.9 03:19:30 45° ESE 03:19:34 45° ESE 03:24:45 10° NE
IRIDIUM 103 4.3 03:22:04 10° N 03:27:19 84° W 03:28:28 56° S
Cosmos 1328 Rocket 3.4 03:30:08 70° E 03:30:08 70° E 03:34:27 10° NNE
Cosmos 1833 Rocket 3.6 03:31:27 31° E 03:31:27 31° E 03:36:08 10° NE
NOSS 2-1 (C) 3.7 03:27:42 10° NW 03:31:41 78° NE 03:32:22 64° ESE
Cosmos 2369 Rocket 4.4 03:29:27 10° WNW 03:31:52 13° W 03:34:16 10° WSW
Cosmos 1151 Rocket 3.9 03:31:33 37° WSW 03:32:38 44° WNW 03:36:48 10° N
Spot 4 4.2 03:33:19 46° E 03:33:58 49° ENE 03:38:34 10° N
ISS -1.3 03:34:47 10° WNW 03:35:42 16° W 03:35:42 16° W
BREEZE-M DEB (TANK) 3.6 03:40:13 48° SSW 03:41:34 64° SE 03:56:39 10° ENE
Cosmos 1470 Rocket 3.8 03:39:43 10° N 03:44:09 59° E 03:44:10 59° E
Cosmos 1766 3.8 03:43:10 10° N 03:46:15 51° NE 03:46:15 51° NE
BREEZE-M DEB (TANK) 3.3 03:42:21 10° WSW 03:50:59 58° NW 03:53:49 10° NE
USA 306 4.2 03:48:39 10° WNW 03:50:49 28° W 03:50:49 28° W
Cosmos 2026 Rocket 4.2 03:50:53 39° SW 03:53:15 64° W 03:59:29 10° N
H-2A R/B 3.8 03:49:47 10° NE 03:52:36 22° E 03:52:36 22° E
ALOS 2 3.0 03:53:28 53° ENE 03:53:34 53° ENE 03:57:51 10° N
Cosmos 1666 Rocket 3.8 03:49:26 10° NNW 03:53:38 54° W 03:53:39 54° W
Cosmos 1470 4.1 03:50:46 10° N 03:53:30 30° NE 03:53:30 30° NE
Cosmos 1633 Rocket 3.1 03:49:52 10° NNW 03:54:15 67° W 03:54:17 67° W
PSLV R/B 4.4 03:51:54 10° N 03:55:51 51° WNW 03:56:02 51° W
NOSS 3-3 (A) 3.6 03:56:23 57° SSW 03:57:34 83° SE 04:03:51 10° NE
Cosmos 1269 Rocket 3.9 04:00:51 64° SSW 04:01:40 84° WNW 04:06:58 10° NNE
Cosmos 1656 3.5 03:57:08 10° NNW 04:02:37 82° WSW 04:03:20 68° S
USA 267 3.3 03:57:35 10° ENE 04:03:59 55° SE 04:04:58 51° SSE
Cosmos 1933 Rocket 3.9 04:05:07 10° N 04:09:12 55° ENE 04:09:12 55° ENE
S3M 4.4 04:06:11 10° N 04:12:26 54° ENE 04:14:08 43° SE
ARIANE 5 R/B 3.9 04:14:14 30° W 04:14:14 30° W 04:17:57 10° NW
Cosmos 2285 Rocket 4.1 04:21:27 52° SE 04:22:23 56° ESE 04:28:34 10° NNE
Cosmos 1553 Rocket 3.9 04:16:23 10° NNW 04:22:27 71° W 04:23:40 56° SSW
Orbus 7S? 4.3 04:25:00 37° NNE 04:25:00 37° NNE 04:26:48 10° NE
Cosmos 1626 4.2 04:26:23 18° WNW 04:26:23 18° WNW 04:28:13 10° NNW
H-2A R/B 3.7 04:26:26 32° W 04:26:26 32° W 04:29:47 10° NNW
NOSS 3-3 (C) 4.0 04:24:50 41° WSW 04:26:46 68° NW 04:33:06 10° NE
Cosmos 1697 Rocket 2.8 04:22:22 10° NNW 04:27:59 67° ENE 04:29:08 53° ESE
Lacrosse 5 rocket 4.3 04:27:20 10° NNW 04:29:57 16° NNE 04:32:31 10° NE
Lacrosse 4 Rocket 2.4 04:27:10 10° NW 04:30:02 38° WNW 04:30:02 38° WNW
Meteor 1-13 Rocket 4.3 04:30:31 58° SE 04:31:25 67° E 04:37:16 10° NNE
USA 59 Rocket 1.3 04:27:47 10° NW 04:30:55 34° W 04:30:55 34° W
Cosmos 1980 Rocket 3.3 04:29:38 10° NNW 04:34:58 38° NE 04:37:27 26° ESE
USA 234 3.9 04:32:58 10° ESE 04:39:17 53° NNE 04:45:37 10° NW
Cosmos 44 Rocket 3.5 04:34:58 10° NNW 04:39:52 61° NE 04:40:30 55° E
COSMOS 2406 4.3 04:43:35 29° ESE 04:43:50 29° ESE 04:48:43 10° NE
Cosmos 1607 3.9 04:42:48 57° SSW 04:44:13 82° ESE 04:50:44 10° NE
In-Cosmos 22 4.2 04:43:35 63° SSE 04:44:22 73° E 04:50:07 10° NNE
Cosmos 1655 Rocket 4.0 04:49:02 56° SSE 04:50:22 73° E 04:56:44 10° NNE
Meteor 2-10 Rocket 4.3 04:45:43 10° N 04:51:25 52° ENE 04:52:51 42° ESE
Cosmos 2228 Rocket 3.7 04:57:36 48° E 04:57:36 48° E 05:01:42 10° NNE
Cosmos 1908 4.4 04:56:23 10° NNW 04:58:40 35° NW 04:58:40 35° NW
Meteor 1-15 Rocket 4.1 04:55:21 10° N 05:01:02 85° E 05:01:52 66° SSE
Cosmos 2266 Rocket 4.1 04:59:49 52° SW 05:01:10 67° W 05:07:24 10° N
Meteor 1-22 Rocket 3.9 04:59:28 10° N 05:04:48 90° E 05:05:25 71° S
Cosmos 1707 4.3 05:09:13 27° NW 05:09:13 27° NW 05:11:47 10° NNW
Cosmos 883 Rocket 4.4 05:02:34 10° N 05:08:49 79° W 05:10:08 57° SSW
Cosmos 1441 Rocket 4.3 05:07:51 10° NNW 05:10:14 38° NNW 05:10:14 38° NNW
Cosmos 2082 Rocket 2.3 05:12:28 56° SE 05:13:07 60° ESE 05:18:45 10° NNE
Cosmos 1833 Rocket 3.6 05:13:06 31° W 05:15:01 41° WNW 05:20:20 10° NNE
Cosmos 1400 Rocket 3.1 05:17:44 63° NNE 05:17:44 63° NNE 05:21:09 10° NNE
BREEZE-M DEB (TANK) 3.0 05:17:33 80° NE 05:17:33 80° NE 05:25:15 10° ESE
Meteor 1-12 Rocket 4.2 05:13:08 10° N 05:19:03 88° W 05:20:16 59° S
Cosmos 724 4.5 05:20:51 46° WSW 05:22:32 66° NW 05:28:22 10° NNE
CZ-2D R/B 4.4 05:20:20 10° ENE 05:22:55 13° E 05:25:16 11° ESE
Cosmos 1869 Rocket 4.4 05:18:53 10° NNW 05:22:27 38° WNW 05:22:27 38° WNW
Cosmos 1733 Rocket 3.1 05:18:39 10° N 05:22:54 72° ENE 05:22:54 72° ENE
Cosmos 1140 Rocket 4.4 05:22:15 34° W 05:23:31 39° WNW 05:28:26 10° N
DELTA 2 R/B (1) 4.3 05:28:24 37° ESE 05:28:24 37° ESE 05:32:04 10° E
GP-B 3.6 05:22:51 10° N 05:26:58 49° WNW 05:26:58 49° WNW
H-2A R/B 3.1 05:25:01 10° N 05:29:06 36° WNW 05:29:24 36° W
Cosmos 1346 Rocket 3.4 05:26:39 10° N 05:30:15 50° ENE 05:30:15 50° ENE
Okean 2 4.3 05:36:49 37° E 05:36:49 37° E 05:40:25 10° NNE
Resurs 1-4 Rocket 4.0 05:33:34 10° NE 05:37:08 18° E 05:39:11 15° ESE
Cosmos 1300 3.6 05:38:59 10° NNW 05:41:29 40° NW 05:41:29 40° NW
Cosmos 676 Rocket 4.0 05:43:28 61° SSE 05:44:18 73° ESE 05:49:38 10° NNE
Cosmos 407 Rocket 4.5 05:44:50 32° W 05:46:14 38° WNW 05:51:09 10° N
SL-14 R/B 4.0 05:47:14 45° NW 05:47:14 45° NW 05:50:31 10° N
Nimbus 7 Rocket 4.4 05:40:54 10° NNE 05:46:56 86° WNW 05:48:36 51° SSW
USA 267 3.9 05:40:39 10° NE 05:46:58 54° NNW 05:52:17 15° W
Cosmos 2251 Rocket 4.3 05:45:41 35° W 05:46:59 40° WNW 05:51:57 10° N
Cosmos 468 Rocket 3.9 05:43:29 10° NNW 05:48:49 89° ENE 05:49:57 57° SSE
Cosmos 1954 Rocket 3.9 05:49:14 61° SW 05:50:10 83° WNW 05:55:32 10° NNE
Cosmos 1953 3.1 05:46:34 10° N 05:50:19 43° ENE 05:50:40 41° E
Meteor 2-20 Rocket 4.5 05:43:48 10° N 05:50:22 88° W 05:52:34 45° S
Cosmos 1703 Rocket 4.4 05:50:10 38° ESE 05:50:48 41° E 05:54:58 10° NNE
Cosmos 1190 Rocket 4.3 05:51:47 49° WSW 05:52:52 59° WNW 05:58:06 10° NNE
Cosmos 381 Rocket 4.4 05:47:24 10° NNW 05:53:48 73° WSW 05:55:45 47° S
Cosmos 1862 Rocket 3.8 05:55:26 55° W 05:55:28 55° W 05:59:44 10° N
CZ-2C R/B 4.3 05:52:14 10° ESE 05:56:34 28° ENE 06:00:55 10° N
Cosmos 1763 Rocket 3.7 05:52:38 10° NNW 05:57:47 51° WSW 05:58:08 50° WSW
SL-8 R/B 3.6 05:53:20 10° WNW 05:58:07 84° NNE 06:02:55 10° ESE
SL-08 R/B 4.4 05:57:41 47° S 05:59:37 90° ESE 06:05:49 10° N
Cosmos 2333 Rocket 4.5 05:56:07 10° N 06:00:35 23° NE 06:05:02 10° E
ATLAS CENTAUR R/B 4.4 05:50:58 10° NW 06:03:28 50° WSW 06:07:30 34° S
Cosmos 1745 Rocket 4.2 06:02:34 36° SSE 06:05:04 62° E 06:11:15 10° NNE
Cosmos 2322 Rocket 3.9 06:00:02 10° N 06:05:04 32° NE 06:10:06 10° ESE
NOSS 3-4 (A) 4.1 05:59:44 10° NW 06:06:34 52° WSW 06:09:12 38° SSW
NOSS 3-4 (C) 4.1 05:59:50 10° NW 06:06:40 52° WSW 06:09:22 37° S
Lacrosse 5 rocket 2.5 06:05:21 10° NW 06:09:16 41° NNE 06:13:00 10° ESE
Cosmos 1356 Rocket 3.9 06:09:45 44° WNW 06:09:46 44° WNW 06:13:42 10° N
Cosmos 1697 Rocket 4.3 06:07:36 10° WNW 06:10:50 18° W 06:10:50 18° W
NPP 4.3 06:07:47 10° NNE 06:13:00 47° E 06:15:04 32° SSE
MOZ.5/SAFIR/RUBIN 5/SL-8 3.8 06:13:57 47° SSE 06:15:19 82° ENE 06:20:03 10° NNW
Cosmos 540 Rocket 3.7 06:10:36 10° NNW 06:15:34 49° WSW 06:16:03 47° WSW
Cosmos 1980 Rocket 2.9 06:13:47 10° NW 06:18:53 35° WSW 06:19:10 34° WSW
Okean 1-7 3.0 06:19:50 58° WSW 06:20:14 61° W 06:24:31 10° N
USA 234 3.3 06:18:11 23° SSE 06:22:15 56° SW 06:28:42 10° NW
Okean 3 4.3 06:23:25 33° W 06:23:35 33° WNW 06:27:20 10° N
ADEOS II 3.5 06:19:19 10° NE 06:23:53 29° E 06:26:50 18° SE
Cosmos 1315 Rocket 2.5 06:25:30 76° SSW 06:25:46 86° W 06:29:41 10° N
COSMOS 2406 3.9 06:25:37 31° WSW 06:27:53 46° WNW 06:33:25 10° NNE
Helios 1A Rocket 3.8 06:29:13 32° W 06:29:13 32° W 06:32:12 10° NNW
IDEFIX/ARIANE 42P 2.7 06:23:26 10° NNE 06:28:41 66° ESE 06:30:44 37° S
Nadezhda 1 Rocket 4.0 06:22:30 10° N 06:28:56 83° W 06:32:02 33° S
Cosmos 2369 4.3 06:25:19 10° NW 06:30:30 36° WSW 06:31:08 35° WSW
SJ 16-02 2.7 06:30:07 24° SE 06:31:37 30° E 06:35:23 10° NE
Cosmos 1455 2.6 06:43:23 10° NNW 06:46:21 40° WNW 06:46:21 40° WNW
Genesis I 3.4 06:46:39 44° SE 06:47:00 46° ESE 06:50:25 10° NE
CZ-2C R/B 3.8 06:42:15 10° NNE 06:47:59 57° E 06:51:28 23° S
Cosmos 1850 Rocket 4.0 06:46:59 38° SSW 06:49:05 80° WNW 06:54:23 10° NNE
Cosmos 1782 Rocket 3.4 06:44:56 10° N 06:49:19 81° W 06:50:51 40° S
SL-16 R/B 2.1 06:44:12 10° NNW 06:49:54 81° WSW 06:54:18 17° SSE
Cosmos 1908 Rocket 4.1 06:45:49 10° NNW 06:49:57 40° W 06:50:35 38° WSW
Cosmos 1741 Rocket 4.0 06:52:11 36° SSW 06:54:20 76° WNW 06:59:37 10° NNE
RESURS DK-1 4.1 06:53:05 10° N 06:56:45 32° NE 07:00:25 10° ESE
Cosmos 2082 Rocket 3.8 06:54:17 15° W 06:57:37 25° NW 07:02:16 10° N
Meteor 1-4 Rocket 4.0 07:01:44 19° WNW 07:01:44 19° WNW 07:03:41 10° NNW
AQUA 4.4 06:57:35 10° NNE 07:02:12 50° E 07:05:10 21° SSE
Cosmos 2219 Rocket 3.8 06:57:18 10° N 07:02:30 35° NE 07:07:39 10° ESE
CZ-2D R/B 2.1 06:58:06 10° NNE 07:03:36 85° WNW 07:06:34 28° SSW
ATLAS 2AS CENTAUR R/B 4.0 06:57:19 10° NNW 07:03:47 41° NE 07:10:00 10° ESE
Cosmos 968 Rocket 3.4 07:02:01 33° SSW 07:04:24 86° WNW 07:09:33 10° NNE
CRYOSAT 2 4.4 07:00:45 10° N 07:05:40 84° E 07:08:31 25° S
H-2A R/B 3.8 07:02:44 10° N 07:06:35 47° WNW 07:07:46 35° WSW
Cosmos 1709 Rocket 4.1 07:03:38 28° SSW 07:07:07 67° W 07:13:29 10° N
Cosmos 2237 4.4 07:04:34 10° NW 07:10:05 50° WSW 07:13:32 22° S
SL-16 R/B 2.9 07:04:13 10° SSE 07:10:25 68° ENE 07:16:39 10° N
Cosmos 2360 Rocket 2.4 07:05:58 10° NNW 07:11:41 76° ENE 07:17:20 10° SSE
DELTA 2 R/B (1) 3.7 07:09:07 20° WSW 07:12:44 50° S 07:18:05 10° ESE
Cosmos 2181 Rocket 4.2 07:06:55 10° N 07:13:19 74° E 07:19:33 10° SSE
Meteor 1-24 Rocket 4.1 07:09:20 18° S 07:13:53 69° E 07:19:52 10° NNE
Cosmos 841 Rocket 4.2 07:09:56 10° NW 07:14:36 34° W 07:16:16 27° SW
SL-27 R/B 1.8 07:15:10 58° S 07:15:37 81° ESE 07:18:26 10° NNE
Cosmos 1825 4.4 07:14:35 10° SE 07:17:04 19° E 07:19:33 10° NE
Resurs 1-4 Rocket 2.2 07:12:09 10° N 07:17:19 61° WNW 07:20:15 26° SW
OAO 3 Rocket 4.2 07:16:59 27° SSW 07:17:20 27° S 07:21:25 10° SE
Cosmos 839 Rocket 4.5 07:11:14 10° NNW 07:18:29 70° NE 07:24:40 10° SE
Cosmos 1242 Rocket 2.9 07:19:20 31° W 07:19:28 32° WNW 07:22:07 10° N
MSX 4.1 07:16:08 10° N 07:21:43 54° WNW 07:25:08 23° SW
Cosmos 1892 4.3 07:21:20 10° SSE 07:24:22 28° E 07:27:24 10° NNE
Cosmos 2242 Rocket 3.9 07:23:09 28° SW 07:25:13 51° WNW 07:29:36 10° N
Cosmos 1953 4.3 07:23:42 10° NW 07:25:44 14° W 07:25:47 14° W
FENGYUN 3A 3.6 07:22:49 10° NNE 07:28:13 83° WNW 07:32:03 20° SSW
Cosmos 1408 2.9 07:30:11 30° WSW 07:30:43 33° WNW 07:33:28 10° N
IRAS Rocket 4.4 07:25:24 10° NNE 07:30:54 68° ESE 07:35:36 14° S
Sich 1 Rocket 4.3 07:27:09 10° N 07:31:35 54° ENE 07:35:56 10° SSE
Cosmos 2151 Rocket 4.1 07:29:23 10° N 07:33:50 62° E 07:38:13 10° SSE
SL-4 R/B 2.9 07:31:45 22° SSW 07:33:59 40° SE 07:38:09 10° ENE
Cosmos 2098 Rocket 3.7 07:30:46 10° NNW 07:36:02 73° W 07:42:11 10° S
Tiangong -0.1 07:36:09 14° SSE 07:36:34 15° SSE 07:38:25 10° ESE
CZ-2C R/B 3.1 07:33:41 21° SSW 07:36:39 39° W 07:41:30 10° NNW
EXPRESS MD2 3.6 07:36:16 19° W 07:38:11 53° NNW 07:42:48 10° ENE
SL-8 R/B 4.5 07:36:09 10° W 07:40:13 28° SW 07:44:18 10° SSE
Cosmos 1814 Rocket 4.1 07:38:28 10° NNW 07:43:33 54° WSW 07:48:39 10° S
Cosmos 2333 Rocket 2.2 07:39:41 10° NNW 07:45:22 67° WSW 07:51:03 10° SSE
Okean 2 Rocket 3.2 07:42:15 10° N 07:46:40 78° E 07:51:04 10° SSE
Lacrosse 5 rocket 2.0 07:43:57 10° WNW 07:47:29 29° SW 07:50:51 10° S
Cosmos 1674 Rocket 3.7 07:43:34 13° S 07:47:34 80° E 07:52:01 10° N
Cosmos 2322 Rocket 2.6 07:43:55 10° NW 07:49:13 43° WSW 07:54:32 10° S
Meteor 2-5 Rocket 4.1 07:50:25 15° SSW 07:55:12 57° WNW 08:01:04 10° N
Cosmos 405 Rocket 2.6 07:53:14 10° N 07:56:51 81° ENE 08:00:29 10° SSE
ALOS 2.4 07:56:49 10° N 08:01:23 61° WNW 08:05:29 13° SSW
Cosmos 1570 Rocket 4.0 07:56:44 10° NNW 08:02:04 88° WSW 08:07:24 10° SSE
ADEOS II 2.8 07:58:44 10° N 08:03:32 38° WNW 08:07:43 13° SW
ATLAS CENTAUR R/B 2.7 08:01:37 10° S 08:04:33 26° ESE 08:07:32 10° ENE
Cosmos 1378 Rocket 3.7 08:01:01 14° SSW 08:04:39 56° WNW 08:08:53 10° N
Cosmos 2208 Rocket 4.2 08:00:12 10° NNW 08:05:31 76° ENE 08:10:43 10° SSE
IDEFIX/ARIANE 42P 4.3 08:04:07 10° NNW 08:07:40 19° WNW 08:11:12 10° WSW
Cosmos 2074 Rocket 4.1 08:02:57 10° SSW 08:09:06 64° W 08:15:17 10° N
SJ 16-02 2.6 08:06:53 13° WSW 08:09:57 26° WNW 08:13:37 10° N
Okean 1 Rocket 3.0 08:08:19 10° N 08:12:41 89° WSW 08:16:59 10° S
METEOR-M 4.2 08:08:38 10° NNE 08:14:01 82° ESE 08:19:21 10° SSW
CZ-2C R/B 2.8 08:12:07 10° NNE 08:16:50 60° E 08:21:24 10° S
BREEZE-M DEB (TANK) 2.1 08:14:16 10° WNW 08:17:19 52° NNE 08:19:21 10° E
IRS-1D 4.4 08:13:33 10° NNE 08:18:47 54° E 08:23:56 10° S
UNK 4.1 08:15:22 10° S 08:19:48 44° W 08:24:15 10° NNW
Envisat 3.0 08:14:46 10° NNE 08:19:53 88° W 08:24:57 10° SSW
Cosmos 158 Rocket 4.1 08:19:34 10° NNW 08:25:00 85° WSW 08:30:20 10° SSE
CZ-4C R/B 4.3 08:24:37 10° SE 08:26:34 13° ESE 08:28:40 10° E
Cosmos 2184 Rocket 4.4 08:21:39 10° SSW 08:27:36 48° WNW 08:33:41 10° N
SL-16 R/B 4.0 08:31:26 10° W 08:33:00 11° W 08:34:34 10° WSW
RESURS DK-1 3.5 08:31:04 10° NW 08:34:20 24° WSW 08:37:36 10° SSW
Cosmos 2322 3.7 08:30:11 10° NNW 08:35:54 78° WSW 08:41:33 10° SSE
DMSP B5D2-2 4.2 08:30:51 10° SSE 08:36:05 84° ENE 08:41:22 10° NNW
Nadezhda 3 Rocket 4.2 08:32:29 10° NNW 08:38:40 55° W 08:44:46 10° SSW
Cosmos 2154 Rocket 4.4 08:32:57 10° SSW 08:38:53 48° WNW 08:44:54 10° N
NOAA 11 4.3 08:36:10 10° N 08:41:39 68° WNW 08:47:05 10° SSW
